Location: Laval
(48.0785°N, 0.7670°W)
Time: 18:58:58
(UTC+02:00)

ISS - Visible Passes

Search period start: 26 July 2021 00:00
Search period end: 05 August 2021 00:00
Orbit: 419 x 421 km, 51.6° (Epoch: 26 July)

Date Brightness Start Highest point End Pass type
(mag) Time Alt. Az. Time Alt. Az. Time Alt. Az.
26 Jul -2.5 00:43:35 10° WNW 00:45:55 31° WSW 00:45:55 31° WSW visible
26 Jul -3.0 22:19:18 10° WNW 22:22:36 50° N 22:25:55 10° E visible
26 Jul -3.5 23:56:11 10° WNW 23:59:29 54° SSW 00:00:07 45° SSE visible
27 Jul -3.8 23:08:49 10° WNW 23:12:13 78° SSW 23:14:21 21° ESE visible
28 Jul -1.3 00:46:25 10° W 00:47:18 13° WSW 00:47:18 13° WSW visible
28 Jul -3.6 22:21:30 10° WNW 22:24:53 78° NNE 22:28:16 10° ESE visible
28 Jul -2.3 23:58:39 10° W 00:01:27 24° SW 00:01:35 24° SW visible
29 Jul -2.8 23:11:07 10° WNW 23:14:15 36° SW 23:15:54 21° SSE visible
30 Jul -3.3 22:23:41 10° WNW 22:27:00 53° SSW 22:30:16 10° SE visible
31 Jul -1.1 00:02:52 10° SW 00:03:11 10° SW 00:03:13 10° SW visible
31 Jul -1.5 23:13:56 10° W 23:16:05 16° SW 23:17:39 12° SSW visible
01 Aug -2.0 22:26:09 10° W 22:28:56 24° SW 22:31:42 10° SSE visible
